Tracking 19832 objects as of 24-Aug-2019
HD Live streaming from Space Station
objects crossing your sky now

INTERCOSMOS 25

Track INTERCOSMOS 25 now!
10-day predictions
INTERCOSMOS 25 is classified as:


NORAD ID: 21819
Int'l Code: 1991-086A
Perigee: 447.2 km
Apogee: 2,883.8 km
Inclination: 82.6 °
Period: 119.5 minutes
Semi major axis: 8036 km
RCS: 7.3989 m2 (large)
Launch date: December 18, 1991
Source: Commonwealth of Independent States (former USSR) (CIS)
Launch site: PLESETSK MISSILE AND SPACE COMPLEX (PKMTR)
aabbcc
Your satellite tracking list
Your tracking list is empty




NASA's NSSDC Master Catalog

Two Line Element Set (TLE):
1 21819U 91086A   19235.70758931 +.00000542 +00000-0 +10725-3 0  9994
2 21819 082.5948 305.0697 1515920 188.5055 168.7383 12.05041753208301
Source of the keplerian elements: AFSPC